Regional Weather Roundup
Issued by NWS

Home | Current Version | Previous Version | Graphics & Text | Print | Product List | Glossary On
Versions: 1 2 3 4 5 6 7 8 9 10 11 12 13 14 15 16 17 18 19 20 21 22 23 24 25 26 27 28 29 30 31 32 33 34 35 36 37 38 39 40 41 42 43 44 45 46 47 48 49 50
000
ASUS43 KLOT 242012
RWRIL

ILLINOIS REGIONAL WEATHER ROUNDUP
NATIONAL WEATHER SERVICE CHICAGO/ROMEOVILLE IL
300 PM CDT SUN MAY 24 2015

NOTE: "FAIR" INDICATES FEW OR NO CLOUDS BELOW 12,000 FEET WITH NO
SIGNIFICANT WEATHER AND/OR OBSTRUCTIONS TO VISIBILITY.

* THESE STATIONS ARE NOT UNDER NWS QUALITY CONTROL. THEY ALSO MAY NOT
  REPORT WEATHER SUCH AS PRECIPITATION OR FOG.

ILZ001-002-007-009-015-016-024-242100-
NORTHWEST ILLINOIS

CITY           SKY/WX    TMP DP  RH WIND       PRES   REMARKS
MOLINE         PTSUNNY   77  67  71 S10G18    29.90F
STERLING*      CLOUDY    75  64  69 SE13G21   29.95F
SAVANNA*       CLOUDY    67  63  87 E10       29.94F
$$

ILZ003-004-008-010-011-017-018-242100-
NORTH CENTRAL ILLINOIS

CITY           SKY/WX    TMP DP  RH WIND       PRES   REMARKS
ROCKFORD       LGT RAIN  68  58  70 SE7       30.02S
FREEPORT*      CLOUDY    64  61  88 E9        30.00F
ROCHELLE*      HVY RAIN  66  63  87 S9        30.01R
DE KALB*       LGT RAIN  68  59  73 SE12      30.02S
PERU*          CLOUDY    71  68  90 S8        29.98F
$$

ILZ005-006-012>014-019>023-242100-
NORTHEAST ILLINOIS

CITY           SKY/WX    TMP DP  RH WIND       PRES   REMARKS
CHICAGO-OHARE  CLOUDY    70  53  54 E12       30.02F
CHICAGO-MIDWAY CLOUDY    74  56  53 E9        30.02F
AURORA         RAIN      71  60  68 SE7       30.01F
LANSING*       CLOUDY    79  55  44 S8        30.02F
JOLIET*        PTSUNNY   80  64  57 S5        29.99F HX  82
WAUKEGAN       CLOUDY    60  49  66 E10       30.05F
DUPAGE AIRPORT CLOUDY    74  56  53 E12       30.00F
KANKAKEE*      CLOUDY    80  62  54 S12G18    30.01F HX  81
WHEELING       CLOUDY    66  51  58 E13G18    30.05F
MORRIS*        LGT RAIN  80  61  51 S13       29.98F HX  81
ROMEOVILLE*    CLOUDY    79  59  51 S9        30.00F HX  80
NORTHERLY ISL    N/A     59  51  75 NE5         N/A
$$

LMZ740>746-242100-
SOUTHERN LAKE MICHIGAN

STATION/POSITION SKY/WX   TEMP    WIND        PRES    VSBY  WAVE
                          AIR SEA DIR/SP/G                  HT/PER
                          (F)     (DEG/KT/KT) (MB)    (MI)  (FT/S)
SOUTHERN BUOY              48 38   70/ 12/ 12 1019.4F         0
HARRISON CRIB              57      80/ 18/ 19   N/A
BURNHAM HARBOR             59      60/  8       N/A
CALUMET HARBOR             61      70/  5/  7   N/A
BURNS HARBOR               77     100/ 11/ 15 1018.6F
MICHIGAN CITY              76      90/  7/ 10   N/A
MICHIGAN CITY 6N           63 54  100/  8/ 10   N/A           0
ST. JOSEPH                 68 56  140/  6/  8   N/A           1
$$

ILZ025>027-034>036-040-047-049-050-058-095>099-242100-
WEST-CENTRAL ILLINOIS

CITY           SKY/WX    TMP DP  RH WIND       PRES   REMARKS
QUINCY         CLOUDY    76  68  76 SW8       29.89F
GALESBURG*     CLOUDY    79  64  60 S17G25    29.93F HX  80
MACOMB*        PTSUNNY   81  64  57 S17G25    29.94F HX  82
JACKSONVILLE*  PTSUNNY   85  65  50 S20G30    29.94F HX  87
PITTSFIELD*    PTSUNNY   81  65  57 S17G26    29.93F HX  82
$$

ILZ028>032-037-038-041>044-048-051>054-059>061-242100-
CENTRAL ILLINOIS

CITY           SKY/WX    TMP DP  RH WIND       PRES   REMARKS
PONTIAC        LGT RAIN  76  68  76 SW8G16    30.00S
BLOOMINGTON    PTSUNNY   84  65  52 S29G35    29.99F HX  85
DECATUR        PTSUNNY   83  64  52 S17G25    30.00F HX  84
PEORIA         PTSUNNY   80  68  66 S13       29.95F HX  83
LACON*         CLOUDY    75  68  79 S7        29.95F
LINCOLN*       PTSUNNY   84  63  48 S22G29    29.94F HX  84
SPRINGFIELD    PTSUNNY   86  63  45 S23G31    29.96F HX  87
TAYLORVILLE    PTSUNNY   81  63  54 S20G26    29.99F HX  82
$$

ILZ033-039-045-046-055>057-062-063-242100-
EAST-CENTRAL ILLINOIS

CITY           SKY/WX    TMP DP  RH WIND       PRES   REMARKS
CHAMPAIGN      PTSUNNY   87  61  41 S23G31    30.03F HX  87
DANVILLE*      PTSUNNY   83  61  46 S17G25    30.03F HX  84
RANTOUL*       CLOUDY    87  62  43 S22G30    30.02F HX  87
MATTOON        PTSUNNY   83  64  52 S15G22    30.04F HX  84
PARIS*         PTSUNNY   85  60  42 S22       30.08F HX  85
$$

ILZ079-100>102-242100-
SOUTHWEST ILLINOIS

CITY           SKY/WX    TMP DP  RH WIND       PRES   REMARKS
BELLEVILLE     PTSUNNY   83  67  59 S20G29    29.96F HX  86
CAHOKIA*       PTSUNNY   85  62  46 S16G28    29.95F HX  85
SPARTA*        PTSUNNY   82  66  58 S16G23    30.01F HX  83
$$

ILZ064>066-069>071-074>076-080>082-084>086-088>090-092>094-242100-
SOUTH-CENTRAL ILLINOIS

CITY           SKY/WX    TMP DP  RH WIND       PRES   REMARKS
CARBONDALE     PTSUNNY   85  64  49 S20G25    30.01F HX  86
CAIRO*         PTSUNNY   83  64  51 S14G25    30.03F HX  85
EFFINGHAM*     MOSUNNY   84  59  42 SE9G21    30.05F HX  83
MARION         PTSUNNY   84  66  54 S14G23    30.03F HX  86
MT. VERNON     PTSUNNY   82  64  54 S13G23    30.04F HX  84
CENTRALIA*     PTSUNNY   85  61  43 S21       30.02F HX  85
SALEM*         PTSUNNY   85  62  45 S15G26    30.03F HX  85
METROPOLIS*    PTSUNNY   85  64  49 S13G20    30.04F HX  86
$$

ILZ067-068-072-073-078-083-087-091-242100-
SOUTHEAST ILLINOIS

CITY           SKY/WX    TMP DP  RH WIND       PRES   REMARKS
LAWRENCEVILLE  PTSUNNY   83  62  49 S18G24    30.08F HX  84
FLORA*         SUNNY     83  62  49 SE16G22   30.05F HX  84
FAIRFIELD*     PTSUNNY   84  64  50 S15       30.04F HX  85
HARRISBURG*    MOSUNNY   85  62  46 SE17      30.06F HX  86
ROBINSON*      MOSUNNY   83  58  42 S18       30.09F HX  83
CARMI*         MOSUNNY   86  54  32 S20G28    30.06F HX  84
$$

ABBREVIATIONS USED IN REMARKS
   TC - TEMPERATURE IN CELSIUS
  WCI - WIND CHILL INDEX
   HX - HEAT INDEX
  VSB - VISIBILITY
$$



USA.gov is the U.S. government's official web portal to all federal, state and local government web resources and services.